Regional Weather Roundup
Issued by NWS Sioux Falls, SD

Home | Current Version | Previous Version | Text Only | Print | Product List | Glossary Off
Versions: 1 2 3 4 5 6 7 8 9 10 11 12 13 14 15 16 17 18 19 20 21 22 23 24 25 26 27 28 29 30 31 32 33 34 35 36 37 38 39 40 41 42 43 44 45 46 47 48 49 50

000
ASUS43 KFSD 231410
RWRFSD

WEATHER ROUNDUP FOR SE SOUTH DAKOTA/SW MINNESOTA/NW IOWA
NATIONAL WEATHER SERVICE SIOUX FALLS SD
900 AM CDT FRI JUN 23 2017

NOTE: "FAIR" INDICATES FEW OR NO CLOUDS BELOW 12,000 FEET WITH NO
SIGNIFICANT WEATHER AND OR OBSTRUCTIONS TO VISIBILITY.


SDZ038>040-050-052>070-231500-
SOUTHEAST SOUTH DAKOTA

CITY           SKY/WX    TMP DP  RH WIND       PRES   REMARKS
BROOKINGS      PTSUNNY   60  51  72 NW23G31   29.94R
CHAMBERLAIN    CLOUDY    61  49  65 W16G28    30.08R
HURON          CLOUDY    61  50  67 NW28G37   29.99F
MADISON        FAIR      59  54  82 NW24G32   29.96F
MITCHELL       CLOUDY    62  50  64 NW21      30.01F
SIOUX FALLS    PTSUNNY   62  52  69 NW23G29   29.96S
WINNER         PTSUNNY   61  46  57 NW26G35   30.11S
YANKTON        CLOUDY    61  49  64 NW28G35   30.00S
$$

MNZ071-072-080-081-089-090-097-098-231500-
SOUTHWEST MINNESOTA

CITY           SKY/WX    TMP DP  RH WIND       PRES   REMARKS
FAIRMONT       CLOUDY    62  51  67 NW15      29.88R
JACKSON        PTSUNNY   63  52  67 NW17      29.90S
LUVERNE        PTSUNNY   61  48  63 NW14G25   29.95S
MARSHALL       PTSUNNY   63  53  70 NW24G32   29.88R
MONTEVIDEO     MOSUNNY   66  55  68 N16G26    29.85S
PIPESTONE      MOSUNNY   61  52  72 NW15G24   29.94R
REDWOOD FALLS  PTSUNNY   62  52  69 NW17      29.86R
TRACY          CLOUDY    62  54  74 NW14G25   29.90R
WINDOM         MOSUNNY   63  52  67 NW15G24   29.90R
WORTHINGTON    MOSUNNY   61  51  70 NW21G28   29.93R
$$

IAZ001>003-012>014-020>022-031-032-NEZ013-014-SDZ071-231500-
NORTHWEST IOWA

CITY           SKY/WX    TMP DP  RH WIND       PRES   REMARKS
CHEROKEE       CLOUDY    62  51  68 NW12G17   29.94R
DENISON        CLOUDY    64  48  55 NW13G21   29.95R
ESTHERVILLE    CLOUDY    61  53  75 NW14G22   29.89R
LE MARS        CLOUDY    63  50  63 NW21G29   29.97R
ORANGE CITY    CLOUDY    61  52  72 NW20G26   29.95R
SHELDON        CLOUDY    61  50  67 NW21G29   29.93R
SIOUX CITY     CLOUDY    61  49  64 NW16G25   29.97R
SPENCER        CLOUDY    62  51  67 NW17G25   29.91R
STORM LAKE     CLOUDY    63  48  59 N18G25    29.93R
$$

ABBREVIATIONS USED IN REMARKS
   TC - TEMPERATURE IN CELSIUS
  WCI - WIND CHILL INDEX
   HX - HEAT INDEX
  VSB - VISIBILITY




USA.gov is the U.S. government's official web portal to all federal, state and local government web resources and services.